Location: Chandler
(33.3060°N, 111.8410°W)
Time: 17:09:29
(UTC-07:00)

Amateur Radio Satellites - All Passes

Search period start: 29 August 2014 16:39
Search period end: 30 August 2014 16:39
Location: Chandler, 33.3060°N, 111.8410°W

Satellite Date Start Highest point End Downlink Frequencies (MHz)
Time Altitude Azimuth
PANSAT 29 Aug 16:42:30 16:44:58 16° 200° (SSW) 16:47:26 not established
JAS-2 29 Aug 17:19:34 17:25:44 50° 74° (ENE) 17:31:14 435.800 - 435.900 CW/SSB, 435.910 FM
Sapphire 29 Aug 17:28:48 17:33:51 41° 300° (WNW) 17:38:57 437.095 MHz 1200 baud AX-25 AFSK
OPAL 29 Aug 17:29:30 17:34:31 49° 289° (WNW) 17:39:31 ?
AO-7 29 Aug 17:33:18 17:39:30 23° 264° (W) 17:45:43 29.400 - 29.500 MHz
RS-15 29 Aug 17:59:17 18:10:12 62° 248° (WSW) 18:21:36 29.354 - 29.394 USB, Beacon 29.352 USB
PCSat 29 Aug 17:59:41 18:03:46 21° 306° (NW) 18:07:52 145.825 MHz
ISS 29 Aug 18:03:20 18:06:40 84° 225° (SW) 18:09:59 145.800 FM
Hamsat 29 Aug 18:04:32 18:08:41 49° 261° (W) 18:12:54 145.90 MHz
SO-67 29 Aug 18:13:26 18:16:00 20° 72° (ENE) 18:18:35 435.3500 MHz FM
JAS-2 29 Aug 19:06:27 19:10:52 19° 264° (W) 19:15:00 435.800 - 435.900 CW/SSB, 435.910 FM
STRAND 1 29 Aug 19:11:11 19:16:17 75° 102° (ESE) 19:21:23 ?
SO-67 29 Aug 19:46:40 19:48:57 17° 265° (W) 19:51:14 435.3500 MHz FM
HO-68 29 Aug 20:25:38 20:32:39 64° 71° (ENE) 20:39:41 435.675 MHz FM
STRAND 1 29 Aug 20:53:37 20:54:47 11° 297° (WNW) 20:55:57 ?
UKube-1 29 Aug 21:21:48 21:26:07 70° 258° (WSW) 21:30:28 145.840 MHz, 145.915 MHz
Oscar 11 29 Aug 21:28:59 21:33:18 82° 77° (ENE) 21:37:40 145.825 FM, Beacon 2401.500 USB
KITSAT 1 29 Aug 21:32:10 21:36:05 14° 101° (E) 21:39:59 435.175 FM
FUNcube-1 29 Aug 21:52:10 21:56:12 51° 75° (ENE) 22:00:18 145.950 - 145.970 MHz USB
HO-68 29 Aug 22:15:52 22:20:43 19° 266° (W) 22:25:37 435.675 MHz FM
Saudisat 1A 29 Aug 22:20:26 22:24:49 84° 118° (ESE) 22:29:15 436.775 MHz
MaSat-1 29 Aug 22:40:04 22:44:16 39° 62° (ENE) 22:47:54 437.345 MHz
KITSAT 1 29 Aug 23:22:16 23:30:22 89° 296° (WNW) 23:38:30 435.175 FM
MaSat-1 30 Aug 00:18:58 00:20:38 12° 262° (W) 00:22:13 437.345 MHz
AO-40 30 Aug 00:41:51 02:12:58 25° 231° (SW) 05:14:52 Beacon 2401.320
PCSat 30 Aug 01:08:15 01:11:40 17° 52° (NE) 01:15:05 145.825 MHz
Oscar 19 30 Aug 01:17:53 01:22:20 29° 97° (E) 01:26:46 437.125 CW, 437.150 USB
KITSAT 1 30 Aug 01:21:24 01:26:50 19° 315° (NW) 01:32:17 435.175 FM
JAS-1B 30 Aug 01:31:56 01:35:20 15° 89° (E) 01:38:33 435.800 - 435.900 CW/SSB
ITAMSAT 1 30 Aug 01:48:31 01:52:38 24° 96° (E) 01:56:44 435.822 SSB
Oscar 16 30 Aug 01:52:02 01:57:14 69° 102° (ESE) 02:02:23 437.025 USB, Beacon 2401.1428
AO-Echo 30 Aug 01:52:11 01:56:10 27° 97° (E) 02:00:10 ?
Uribyol 2 30 Aug 01:58:18 02:02:55 32° 98° (E) 02:07:32 436.500 FM
AO-27 30 Aug 02:16:38 02:21:38 47° 100° (E) 02:26:36 436.795 MHz FM
SO-50 30 Aug 02:20:05 02:22:52 16° 109° (ESE) 02:25:40 436.795 FM
Sapphire 30 Aug 02:20:31 02:25:56 65° 63° (ENE) 02:31:17 437.095 MHz 1200 baud AX-25 AFSK
Gurwin Techsat 1B 30 Aug 02:40:10 02:44:59 34° 98° (E) 02:49:46 435.225 FM
PCSat 30 Aug 02:50:09 02:55:30 61° 248° (WSW) 03:00:48 145.825 MHz
Oscar 19 30 Aug 02:57:11 03:01:33 28° 291° (WNW) 03:05:53 437.125 CW, 437.150 USB
OPAL 30 Aug 03:03:20 03:06:47 19° 64° (ENE) 03:10:16 ?
JAS-1B 30 Aug 03:20:13 03:26:41 58° 288° (WNW) 03:32:22 435.800 - 435.900 CW/SSB
ITAMSAT 1 30 Aug 03:27:30 03:32:06 33° 290° (WNW) 03:36:42 435.822 SSB
AO-Echo 30 Aug 03:31:05 03:34:48 24° 290° (WNW) 03:38:32 ?
TMSAT-1 30 Aug 03:31:52 03:37:11 83° 103° (ESE) 03:42:28 436.925 FM
Oscar 16 30 Aug 03:33:55 03:35:56 12° 296° (WNW) 03:37:57 437.025 USB, Beacon 2401.1428
Uribyol 2 30 Aug 03:38:02 03:42:12 25° 292° (WNW) 03:46:22 436.500 FM
AO-7 30 Aug 03:45:24 03:52:08 27° 97° (E) 03:58:49 29.400 - 29.500 MHz
AO-27 30 Aug 03:57:24 04:00:43 17° 294° (WNW) 04:04:01 436.795 MHz FM
SO-50 30 Aug 03:58:51 04:03:02 39° 303° (WNW) 04:07:18 436.795 FM
Sapphire 30 Aug 04:06:22 04:08:42 13° 257° (WSW) 04:11:02 437.095 MHz 1200 baud AX-25 AFSK
Uosat F 30 Aug 04:20:04 04:24:48 42° 99° (E) 04:29:31 435.120 FM
Gurwin Techsat 1B 30 Aug 04:20:32 04:24:43 24° 292° (WNW) 04:28:53 435.225 FM
UOSAT-12 30 Aug 04:22:55 04:26:35 24° 110° (ESE) 04:30:19 437.025 FM, 437.400 FM
OPAL 30 Aug 04:40:31 04:45:17 43° 259° (W) 04:50:08 ?
TMSAT-1 30 Aug 05:15:55 05:16:20 10° 298° (WNW) 05:16:44 436.925 FM
AO-7 30 Aug 05:37:09 05:45:10 56° 292° (WNW) 05:53:09 29.400 - 29.500 MHz
Hamsat 30 Aug 05:54:32 05:58:36 38° 98° (E) 06:02:37 145.90 MHz
Uosat F 30 Aug 05:59:53 06:03:13 18° 293° (WNW) 06:06:34 435.120 FM
UOSAT-12 30 Aug 06:02:31 06:06:33 30° 306° (NW) 06:10:41 437.025 FM, 437.400 FM
RS-15 30 Aug 06:07:08 06:16:20 31° 105° (ESE) 06:25:19 29.354 - 29.394 USB, Beacon 29.352 USB
JAS-2 30 Aug 06:17:05 06:22:20 62° 102° (ESE) 06:28:03 435.800 - 435.900 CW/SSB, 435.910 FM
STRAND 1 30 Aug 06:22:57 06:28:00 70° 75° (ENE) 06:33:05 ?
Saudisat 1A 30 Aug 06:51:48 06:55:11 21° 52° (NE) 06:58:32 436.775 MHz
SO-67 30 Aug 07:13:15 07:16:33 41° 99° (E) 07:19:49 435.3500 MHz FM
KITSAT 1 30 Aug 07:21:14 07:27:23 23° 47° (NE) 07:33:28 435.175 FM
Hamsat 30 Aug 07:31:45 07:34:11 15° 292° (WNW) 07:36:36 145.90 MHz
HO-68 30 Aug 08:00:54 08:04:05 13° 92° (E) 08:07:15 435.675 MHz FM
JAS-2 30 Aug 08:04:32 08:07:01 13° 294° (WNW) 08:09:34 435.800 - 435.900 CW/SSB, 435.910 FM
STRAND 1 30 Aug 08:07:11 08:07:36 10° 268° (W) 08:08:00 ?
RS-15 30 Aug 08:16:55 08:27:53 62° 302° (WNW) 08:38:42 29.354 - 29.394 USB, Beacon 29.352 USB
Saudisat 1A 30 Aug 08:30:51 08:34:47 32° 247° (WSW) 08:38:42 436.775 MHz
ISS 30 Aug 09:06:55 09:09:35 23° 129° (SE) 09:12:17 145.800 FM
UKube-1 30 Aug 09:14:42 09:18:23 27° 97° (E) 09:22:02 145.840 MHz, 145.915 MHz
KITSAT 1 30 Aug 09:15:27 09:23:31 75° 246° (WSW) 09:31:31 435.175 FM
Oscar 11 30 Aug 09:21:41 09:24:56 20° 95° (E) 09:28:11 145.825 FM, Beacon 2401.500 USB
HO-68 30 Aug 09:45:14 09:52:25 85° 286° (WNW) 09:59:35 435.675 MHz FM
FUNcube-1 30 Aug 09:46:30 09:49:12 15° 94° (E) 09:51:54 145.950 - 145.970 MHz USB
RS-15 30 Aug 10:36:32 10:43:01 17° 329° (NNW) 10:49:30 29.354 - 29.394 USB, Beacon 29.352 USB
ISS 30 Aug 10:43:22 10:46:13 26° 323° (NW) 10:49:05 145.800 FM
UKube-1 30 Aug 10:51:08 10:54:24 21° 291° (WNW) 10:57:39 145.840 MHz, 145.915 MHz
Oscar 11 30 Aug 10:57:22 11:01:04 27° 289° (WNW) 11:04:44 145.825 FM, Beacon 2401.500 USB
KITSAT 1 30 Aug 11:16:57 11:17:34 10° 261° (W) 11:18:11 435.175 FM
PANSAT 30 Aug 11:17:23 11:20:28 23° 164° (SSE) 11:23:33 not established
FUNcube-1 30 Aug 11:21:25 11:25:40 40° 286° (WNW) 11:29:58 145.950 - 145.970 MHz USB
HO-68 30 Aug 11:35:55 11:39:03 13° 303° (WNW) 11:42:11 435.675 MHz FM
JAS-1B 30 Aug 12:10:40 12:16:11 17° 59° (ENE) 12:21:25 435.800 - 435.900 CW/SSB
MaSat-1 30 Aug 12:23:01 12:27:27 42° 106° (ESE) 12:32:15 437.345 MHz
Oscar 19 30 Aug 12:30:55 12:35:13 28° 69° (ENE) 12:39:33 437.125 CW, 437.150 USB
SO-50 30 Aug 12:33:54 12:38:39 57° 59° (ENE) 12:43:25 436.795 FM
Oscar 10/S400 30 Aug 12:44:13 03:39:53 48° 233° (SW) 13:13:26 145.825 - 145.975 CW/USB, Beacon 145.810 USB
PANSAT 30 Aug 12:56:40 13:00:17 39° 176° (S) 13:03:54 not established
AO-Echo 30 Aug 13:01:16 13:05:21 25° 70° (ENE) 13:09:20 ?
ITAMSAT 1 30 Aug 13:02:47 13:06:52 24° 68° (ENE) 13:10:58 435.822 SSB
Oscar 16 30 Aug 13:04:49 13:09:53 65° 75° (ENE) 13:15:01 437.025 USB, Beacon 2401.1428
Uribyol 2 30 Aug 13:12:19 13:16:51 32° 70° (ENE) 13:21:23 436.500 FM
AO-27 30 Aug 13:30:44 13:35:40 47° 73° (ENE) 13:40:37 436.795 MHz FM
JAS-1B 30 Aug 13:55:37 14:05:31 80° 74° (ENE) 14:14:36 435.800 - 435.900 CW/SSB
Gurwin Techsat 1B 30 Aug 13:57:15 14:02:03 37° 71° (ENE) 14:06:53 435.225 FM
MaSat-1 30 Aug 14:01:03 14:04:41 20° 303° (WNW) 14:08:28 437.345 MHz
Oscar 19 30 Aug 14:10:01 14:14:25 29° 263° (W) 14:18:52 437.125 CW, 437.150 USB
SO-50 30 Aug 14:16:30 14:18:43 13° 253° (WSW) 14:20:57 436.795 FM
UOSAT-12 30 Aug 14:35:23 14:40:06 75° 61° (ENE) 14:44:43 437.025 FM, 437.400 FM
PANSAT 30 Aug 14:36:40 14:40:10 33° 189° (S) 14:43:40 not established
AO-Echo 30 Aug 14:39:32 14:43:57 30° 262° (W) 14:48:17 ?
AO-7 30 Aug 14:40:24 14:47:02 27° 60° (ENE) 14:53:38 29.400 - 29.500 MHz
ITAMSAT 1 30 Aug 14:41:32 14:46:09 33° 262° (W) 14:50:47 435.822 SSB
Oscar 16 30 Aug 14:47:56 14:49:36 12° 268° (W) 14:51:17 437.025 USB, Beacon 2401.1428
TMSAT-1 30 Aug 14:48:24 14:53:42 85° 76° (ENE) 14:59:00 436.925 FM
Uribyol 2 30 Aug 14:52:09 14:56:17 24° 264° (W) 15:00:25 436.500 FM
RS-15 30 Aug 15:11:39 15:20:45 28° 43° (NE) 15:30:04 29.354 - 29.394 USB, Beacon 29.352 USB
AO-27 30 Aug 15:12:12 15:15:22 16° 266° (W) 15:18:32 436.795 MHz FM
Sapphire 30 Aug 15:17:34 15:20:30 15° 104° (ESE) 15:23:27 437.095 MHz 1200 baud AX-25 AFSK
Uosat F 30 Aug 15:29:23 15:33:58 38° 71° (ENE) 15:38:34 435.120 FM
Gurwin Techsat 1B 30 Aug 15:37:59 15:42:03 22° 265° (W) 15:46:08 435.225 FM
PCSat 30 Aug 15:45:01 15:49:43 32° 108° (ESE) 15:54:27 145.825 MHz
JAS-1B 30 Aug 15:49:23 15:56:21 22° 267° (W) 16:03:04 435.800 - 435.900 CW/SSB
PANSAT 30 Aug 16:17:33 16:19:53 16° 201° (SSW) 16:22:14 not established
JAS-2 30 Aug 16:27:22 16:31:03 17° 67° (ENE) 16:34:31 435.800 - 435.900 CW/SSB, 435.910 FM
